Weather History for KCLM - November, 2012

Change the Weather History Date:

Monday, November 5, 2012

  Actual Average Record
Temperature  
Mean Temperature 49 °F -  
Max Temperature 55 °F 52 °F 61 °F (1975)
Min Temperature 43 °F 40 °F 27 °F (2003)
Degree Days  
Heating Degree Days 16    
Moisture  
Dew Point 45 °F    
Average Humidity 80    
Maximum Humidity 93    
Minimum Humidity 62    
Precipitation  
Precipitation 0.00 in - - ()
Sea Level Pressure  
Sea Level Pressure 30.33 in    
Wind  
Wind Speed 8 mph (WSW)    
Max Wind Speed 16 mph    
Max Gust Speed -    
Visibility 10 miles    
Events      
Averages and records for this station are not official NWS values.
T = Trace of Precipitation, MM = Missing Value Source: NWS Daily Summary

Daily Weather History Graph

Daily Weather History Graph

Search for Another Location

Airport or City:

Trip Planner

Search our weather history database for the weather conditions in past years. The results will help you decide how hot, cold, wet, or windy it might be!

Date:

Astronomy

Nov. 05, 2012 Rise Set
Actual Time 7:06 AM PST 4:48 PM PST
Civil Twilight 6:33 AM PST 5:21 PM PST
Nautical Twilight 5:56 AM PST 5:58 PM PST
Astronomical Twilight 5:19 AM PST 6:34 PM PST
Moon 10:32 PM PST (11/5) 12:29 PM PST (11/5)
Length of Visible Light 10h 47m
Length of Day
9h 41m
Waning Gibbous, 62% of the Moon is Illuminated
Nov 5
Waning Gibbous
Nov 6
Last Quarter
Nov 13
New
Nov 20
First Quarter
Nov 28
Full

Hourly Weather History & Observations

Time (PST) Temp. Windchill Dew Point Humidity Pressure Visibility Wind Dir Wind Speed Gust Speed Precip Events Conditions
12:53 AM 53.1 °F - 48.0 °F 83% 30.31 in 10.0 mi West 11.5 mph - N/A   Clear
1:53 AM 51.8 °F - 46.4 °F 82% 30.35 in 10.0 mi SW 6.9 mph - N/A   Clear
2:53 AM 52.0 °F - 46.0 °F 80% 30.38 in 10.0 mi SSW 4.6 mph - N/A   Clear
3:53 AM 51.8 °F - 44.6 °F 76% 30.37 in 10.0 mi West 11.5 mph - N/A   Clear
4:53 AM 51.1 °F - 45.0 °F 80% 30.39 in 10.0 mi West 12.7 mph - N/A   Clear
5:53 AM 51.1 °F - 45.0 °F 80% 30.37 in 10.0 mi WSW 16.1 mph - N/A   Clear
6:53 AM 51.1 °F - 44.1 °F 77% 30.38 in 10.0 mi West 13.8 mph - N/A   Clear
7:53 AM 51.1 °F - 43.0 °F 74% 30.40 in 10.0 mi WSW 9.2 mph - N/A   Clear
8:53 AM 51.1 °F - 43.0 °F 74% 30.39 in 10.0 mi West 9.2 mph - N/A   Clear
9:53 AM 55.0 °F - 43.0 °F 64% 30.39 in 10.0 mi WSW 8.1 mph - N/A   Clear
10:53 AM 55.9 °F - 44.1 °F 64% 30.39 in 10.0 mi WNW 5.8 mph - N/A   Clear
11:53 AM 54.0 °F - 46.9 °F 77% 30.40 in 10.0 mi NW 6.9 mph - N/A   Clear
12:53 PM 55.9 °F - 43.0 °F 62% 30.38 in 10.0 mi WNW 8.1 mph - N/A   Clear
1:53 PM 53.1 °F - 46.9 °F 80% 30.36 in 10.0 mi North 4.6 mph - N/A   Clear
2:53 PM 55.0 °F - 45.0 °F 69% 30.36 in 10.0 mi Calm Calm - N/A   Clear
3:53 PM 53.1 °F - 46.0 °F 77% 30.36 in 10.0 mi Calm Calm - N/A   Clear
4:53 PM 50.0 °F - 46.0 °F 86% 30.33 in 10.0 mi Calm Calm - N/A   Clear
5:53 PM 46.9 °F - 45.0 °F 93% 30.32 in 10.0 mi WSW 3.5 mph - N/A   Clear
6:53 PM 48.0 °F - 45.0 °F 89% 30.29 in 10.0 mi Calm Calm - N/A   Overcast
7:53 PM 48.9 °F - 46.0 °F 90% 30.26 in 10.0 mi ESE 4.6 mph - N/A   Overcast
8:53 PM 46.9 °F - 45.0 °F 93% 30.24 in 10.0 mi ESE 3.5 mph - N/A   Clear
9:53 PM 44.1 °F 42.5 °F 42.1 °F 93% 30.21 in 9.0 mi SE 3.5 mph - N/A   Clear
10:53 PM 43.0 °F - 41.0 °F 93% 30.20 in 10.0 mi Calm Calm - N/A   Clear
11:53 PM 43.0 °F - 41.0 °F 93% 30.18 in 10.0 mi Calm Calm - N/A   Mostly Cloudy